Location: Central Coast NSW, Australia
(33.2407°S, 151.4316°E)
Time: 13:53:07
(UTC+10:00)

Envisat - Pass Details

Date: 24 March 2019
Orbit: 764 x 766 km, 98.2° (Epoch: 22 April)

Event Time Altitude Azimuth Distance (km) Brightness Sun altitude
Rises 19:40:31 0° 158° (SSE) 3,264 6.1 -9.1°
Reaches altitude 10° 19:43:01 10° 149° (SSE) 2,330 5.3 -9.6°
Maximum altitude 19:47:45 37° 82° (E) 1,193 3.5 -10.6°
Drops below altitude 10° 19:52:26 10° 15° (NNE) 2,303 5.3 -11.5°
Sets 19:54:52 0° 7° (N) 3,221 6.1 -12.1°
